Tracking 19792 objects as of 15-Jul-2019
HD Live streaming from Space Station
objects crossing your sky now

COSMOS 1361

Track COSMOS 1361 now!
10-day predictions
COSMOS 1361 is classified as:


NORAD ID: 13164
Int'l Code: 1982-040E
Perigee: 1,468.2 km
Apogee: 1,490.4 km
Inclination: 74.0 °
Period: 115.4 minutes
Semi major axis: 7850 km
RCS: 0.6957 m2 (medium)
Launch date: May 6, 1982
Source: Commonwealth of Independent States (former USSR) (CIS)
Launch site: PLESETSK MISSILE AND SPACE COMPLEX (PKMTR)
aabbcc
Your satellite tracking list
Your tracking list is empty




NASA's NSSDC Master Catalog

Two Line Element Set (TLE):
1 13164U 82040E   19195.95011951 -.00000034 +00000-0 -12481-3 0  9993
2 13164 074.0116 138.8165 0014196 354.9688 075.7705 12.48168726694524
Source of the keplerian elements: AFSPC